Tracking 29892 objects as of 21-Nov-2024
HD Live streaming from Space Station
objects crossing your sky now

THORAD DELTA 1 DEB

Track THORAD DELTA 1 DEB now!
10-day predictions


NORAD ID: 8566
Int'l Code: 1974-089DD
Perigee: 1,332.4 km
Apogee: 1,470.1 km
Inclination: 101.4 °
Period: 113.7 minutes
Semi major axis: 7772 km
RCS: 0.0546 m2 (small)
Launch date: November 15, 1974
Source: United States (US)
Launch site: AIR FORCE WESTERN TEST RANGE (AFWTR)

Note: This is SATELLITE DEBRIS
Your satellite tracking list
Your tracking list is empty




NASA's NSSDC Master Catalog

Two Line Element Set (TLE):
1 08566U 74089DD  24324.67053209 -.00000678  00000-0 -32720-2 0  9999
2 08566 101.4168  39.7789 0088598 138.7091  21.6057 12.67018936226091
Source of the keplerian elements: AFSPC